Location: Flumini Malu
(39.7000°N, 8.5667°E)
Time: 23:23:39
(UTC+00:00)

Daily predictions for brighter satellites

Satellite Brightness Start Highest point End
(mag) Time Altitude Azimuth Time Altitude Azimuth Time Altitude Azimuth
Cosmos 2263 Rocket 3.5 16:25:26 10° SSE 16:29:24 20° E 16:33:24 10° NE
Cosmos 2228 4.4 16:25:25 10° SSW 16:29:33 43° WNW 16:33:42 10° N
Cosmos 1437 Rocket 4.0 16:28:14 10° NNE 16:30:58 19° ENE 16:33:43 10° ESE
Helios 1A 4.0 16:27:55 10° NE 16:31:25 26° E 16:34:53 10° SSE
ISS -1.3 16:30:45 10° NNW 16:31:41 11° N 16:32:36 10° NNE
Cosmos 405 Rocket 3.3 16:32:12 10° SSE 16:35:37 35° E 16:39:07 10° NNE
Cosmos 1607 4.4 16:29:46 10° S 16:35:39 45° ESE 16:41:42 10° NE
DMSP B5D2-2 4.1 16:31:08 10° NNE 16:36:21 81° ESE 16:41:34 10° S
SL-24 R/B - RUBIN 2 4.5 16:31:38 10° SW 16:36:44 66° NW 16:42:35 10° NNE
Cosmos 1606 3.0 16:36:29 10° SSW 16:40:03 64° W 16:43:40 10° N
CZ-2D R/B 3.6 16:37:54 10° S 16:41:34 67° W 16:45:14 10° NNW
Cosmos 2279 Rocket 4.2 16:38:49 10° N 16:44:49 46° ENE 16:50:45 10° SSE
CZ-4B R/B 4.1 16:41:55 10° SE 16:46:34 35° ENE 16:51:08 10° N
CORIOLIS 4.1 16:43:08 10° SSE 16:48:26 72° ENE 16:53:47 10° N
Aureole 3 Rocket 3.0 16:43:21 10° N 16:48:34 71° E 16:52:20 10° SSE
SL-16 R/B 2.8 16:43:27 10° N 16:48:35 34° ENE 16:53:40 10° ESE
Cosmos 2151 3.5 16:44:47 10° N 16:48:44 36° ENE 16:52:39 10° SE
Cosmos 1953 Rocket 3.6 16:44:46 10° N 16:49:12 58° E 16:53:33 10° SSE
CZ-2C R/B 3.0 16:47:36 10° S 16:51:05 64° WSW 16:54:37 10° NNW
Cosmos 1666 3.9 16:50:47 10° NNE 16:53:13 17° ENE 16:55:39 10° ESE
Meteor 1-31 Rocket 2.5 16:50:24 10° SSE 16:54:03 70° ENE 16:57:45 10° N
NOSS 2-1 (E) 4.0 16:50:17 10° NNW 16:54:37 56° NE 17:00:46 10° SE
Radarsat Rocket 4.5 16:50:00 10° SE 16:55:10 34° ENE 17:00:23 10° N
Cosmos 1461 2.7 16:51:40 10° NNW 16:55:45 89° ENE 16:59:39 10° SSE
Cosmos 2058 Rocket 3.1 16:56:23 10° S 17:00:48 66° E 17:05:13 10° NNE
COSMO-SKYMED 1 3.1 16:59:52 10° NNE 17:03:54 36° E 17:07:54 10° SSE
Tiangong -2.1 17:00:45 10° WNW 17:03:54 63° N 17:05:50 21° E
ATLAS 5 CENTAUR R/B 2.9 17:00:05 10° NW 17:05:30 64° WSW 17:12:06 10° SSE
Cosmos 1076 Rocket 3.7 17:02:05 10° N 17:06:18 47° E 17:10:29 10° SSE
Cosmos 2219 3.2 17:03:03 10° SSW 17:08:40 88° ESE 17:14:19 10° NNE
Cosmos 1862 3.6 17:08:50 10° NNW 17:12:42 67° W 17:16:34 10° S
Cosmos 2297 Rocket 3.9 17:08:21 10° WSW 17:13:15 30° WNW 17:18:13 10° N
CZ-2C R/B 2.0 17:13:05 10° SW 17:15:05 21° S 17:16:00 17° SE
Cosmos 44 4.5 17:12:04 10° N 17:16:33 26° NE 17:18:21 22° ENE
Cosmos 1812 3.6 17:15:24 10° SSE 17:18:28 25° E 17:18:32 25° E
NOSS 3-4 (A) 4.0 17:15:09 10° NNW 17:22:07 58° NE 17:30:04 10° SE
NOSS 3-4 (C) 3.9 17:15:18 10° NNW 17:22:13 58° NE 17:30:03 10° SE
Cosmos 724 4.4 17:16:21 10° SSW 17:22:32 76° ESE 17:27:49 15° NE
Cosmos 614 Rocket 3.9 17:17:50 10° NNW 17:23:04 76° ENE 17:28:14 10° SSE
Cosmos 1500 2.8 17:21:01 10° N 17:24:31 65° E 17:28:01 10° SSE
Cosmos 2082 3.6 17:23:21 10° SSW 17:28:57 80° ESE 17:34:01 13° NNE
Hubble Space Telescope 3.0 17:28:09 10° SW 17:30:43 16° S 17:33:02 11° SE
CBERS 1 LM4 rocket 4.3 17:26:04 10° SSE 17:30:59 72° ENE 17:35:46 10° N
USA 234 4.3 17:26:58 12° NE 17:32:26 37° NNW 17:38:19 10° W
Cosmos 2180 Rocket 4.5 17:26:41 10° N 17:33:06 83° E 17:39:29 10° S
NOAA 6 3.9 17:32:56 10° SSE 17:38:04 80° ENE 17:43:13 10° N
Cosmos 2237 Rocket 4.4 17:36:39 10° NW 17:41:16 27° WSW 17:45:51 10° SSW
Meteor 1-20 Rocket 4.3 17:39:25 10° N 17:44:47 48° ENE 17:50:11 10° SSE
Cosmos 1544 4.5 17:42:24 10° NNW 17:45:24 35° W 17:48:24 10° SSW
USA 276 4.1 17:44:08 10° SSW 17:44:43 14° S 17:44:43 14° S
TRACE 4.4 17:47:27 64° ESE 17:47:27 64° ESE 17:50:55 10° S
H-2A R/B 3.1 17:47:29 10° WSW 17:50:50 35° S 17:54:46 21° ESE
SKYMED 2 4.0 17:47:43 10° N 17:52:01 62° WNW 17:56:17 10° SSW
Cosmos 1602 3.5 17:48:51 10° N 17:52:34 88° E 17:56:17 10° S
Cosmos 2084 Rocket 3.1 17:52:16 10° NW 17:56:04 80° WSW 17:56:55 52° SSE
Cosmos 2227 4.4 17:50:45 10° S 17:56:13 47° ESE 17:57:02 44° E
Cosmos-2242 2.9 17:52:06 10° S 17:56:26 90° NW 17:58:37 29° N
SME Rocket 3.9 17:57:08 44° E 17:58:02 48° ENE 18:04:30 10° N
Cosmos 2227 Rocket 4.4 18:04:37 10° W 18:08:44 20° NW 18:12:53 10° N
ISS -0.9 18:07:04 10° NNW 18:07:17 11° NNW 18:07:17 11° NNW
ADEOS 3.7 18:05:39 10° S 18:10:50 76° WSW 18:16:05 10° NNW
Cosmos 2263 Rocket 2.9 18:07:28 10° SW 18:12:51 51° WNW 18:16:28 21° N
Cosmos 1844 Rocket 4.5 18:11:15 10° SSE 18:12:38 17° SSE 18:12:38 17° SSE
ATLAS CENTAUR R/B 3.4 18:13:28 10° NNW 18:18:27 47° NE 18:18:27 47° NE
Cosmos 1812 Rocket 3.9 18:15:09 10° SSW 18:19:24 63° W 18:19:55 57° NW
SL-08 R/B 4.2 18:17:34 18° N 18:20:44 45° WNW 18:25:07 10° SW
Meteor 2-17 Rocket 4.3 18:15:24 10° S 18:21:32 79° E 18:23:51 41° NNE
Cosmos 2026 Rocket 3.9 18:24:31 10° S 18:30:42 88° W 18:33:42 34° N
Lacrosse 5 4.1 18:27:48 10° S 18:28:38 14° S 18:28:38 14° S
SL-16 R/B 3.8 18:27:35 10° NW 18:32:37 34° WSW 18:37:37 10° SSW
ATLAS 2AS CENTAUR R/B 4.3 18:33:00 10° NNW 18:35:49 19° N 18:35:49 19° N
Cosmos 1092 Rocket 4.0 18:32:17 10° SSW 18:38:25 74° W 18:41:19 33° N
CZ-4B DEB 4.3 18:34:36 10° S 18:40:07 75° WSW 18:45:41 10° NNW
Tiangong 1.3 18:37:32 10° W 18:37:57 13° W 18:37:57 13° W
Cosmos 1943 4.2 18:45:22 10° NNW 18:48:39 37° NNW 18:48:39 37° NNW
Cosmos 2344 3.7 18:44:53 10° SW 18:52:36 66° NW 18:54:21 51° N
Centaur D AC-28 4.3 19:22:55 10° W 19:30:09 26° SW 19:30:09 26° SW
